Location: Godiavel Galaoual
(15.2485°N, 12.6604°W)
Time: 11:08:31
(UTC+00:00)

Hubble Space Telescope - Pass Details

Date: 24 May 2021
Orbit: 535 x 539 km, 28.5° (Epoch: 19 June)

Event Time Altitude Azimuth Distance (km) Brightness Sun altitude
Exits shadow 04:24:39 15° 340° (NNW) 1,471 3.1 -25.7°
Maximum altitude 04:25:13 16° 350° (N) 1,452 3.2 -25.5°
Drops below altitude 10° 04:27:45 10° 28° (NNE) 1,776 4.2 -25.0°
Sets 04:30:46 0° 51° (NE) 2,666 5.7 -24.4°
